CAPE
470 654 607 820 51 51 4 1 2 116 125 63 157 183 234 387 252 9 165 296 624 811 1158 1711 2341 2027 2087 2172 1864 2167 2273 1959 2044 1934 1770 1733 1557 1527 1463 1425 1161 1026 990 982 1366 1376 1131 1242 1333
0 18 782 462 34 0 0 5 7 66 119 227 315 179 97 324 273 281 323 551 714 983 1320 1675 2316 2247 1821 2201 2120 2258 2198 2182 1951 1670 1395 1244 1367 1436 1430 1456 1355 1264 1427 1363 1409 1371 1106 1289 1358
0 344 84 147 25 30 31 3 71 116 138 91 331 227 119 202 255 162 298 618 892 1212 1246 1500 2161 2468 2287 2243 2290 2170 2310 2307 2109 1733 1300 829 928 1241 1233 1322 1373 1496 1494 1402 1221 1209 1129 1172 1040
50 527 26 19 1 90 10 182 30 151 377 305 369 278 113 189 130 203 544 814 1001 1078 1204 1832 2152 2183 2207 2086 2273 2183 1911 1952 1929 1831 1489 1035 734 373 1116 1177 1311 1161 1134 1156 1197 1152 1240 1258 1200
345 93 30 63 6 27 92 222 106 157 217 417 215 195 111 61 116 344 570 847 918 924 1105 1758 2375 2100 2216 2310 2268 2076 2126 1905 1822 1609 1570 807 902 1022 1017 895 1046 1102 1248 1419 1455 1238 1303 1416 1478
387 12 2 26 113 274 554 420 91 169 293 242 188 137 66 58 153 199 318 555 823 968 1493 1750 2314 2471 2466 2327 2178 2126 2031 1944 1736 1550 1102 624 1093 1004 971 1115 1359 1366 1288 1455 1321 1283 1336 1266 1354
419 19 4 73 93 634 762 356 354 156 221 239 166 98 5 54 116 98 249 538 790 1117 1291 1496 1553 1883 2098 2079 2284 2107 2008 1766 1812 1431 669 782 1130 1059 1297 956 803 748 736 786 885 1112 1294 1178 1284
422 1 6 46 75 87 216 490 201 437 212 236 138 84 34 1 0 109 372 574 958 1264 1226 1262 1219 1597 1651 1738 2237 2089 1714 1752 1785 1582 1189 1200 839 743 1157 1148 1233 1031 989 870 849 1023 1225 1246 1135
79 13 3 86 124 202 422 250 658 613 393 310 212 101 62 47 124 255 510 574 672 702 741 900 938 864 1126 1254 1561 1762 1708 1553 1632 1239 1118 279 27 145 135 912 1143 1126 1211 825 886 1014 1127 1167 1295
77 0 0 137 106 381 492 367 480 475 476 347 132 48 74 216 226 297 384 499 532 623 754 857 810 718 720 1121 1176 974 943 741 644 300 168 256 25 4 323 408 1223 1187 961 1253 1003 1141 1351 1384 821
42 0 88 342 197 611 461 383 417 147 199 321 233 125 99 122 211 254 318 436 523 417 575 762 824 737 590 1040 753 510 405 352 168 143 193 232 262 350 230 329 308 233 832 351 583 520 746 671 764
86 163 100 553 547 468 508 351 183 125 38 235 259 160 152 96 30 58 79 58 106 173 302 570 673 683 559 772 672 548 401 254 142 12 56 284 224 221 132 194 158 127 13 300 228 184 574 586 519
96 639 96 87 106 408 453 366 198 131 243 390 311 240 175 126 60 68 65 59 62 87 114 367 323 576 504 676 561 533 428 257 151 65 16 129 94 236 74 0 175 57 67 110 158 121 70 265 834
464 545 147 169 131 632 538 401 157 60 236 436 328 276 228 188 117 91 38 113 66 51 100 132 269 451 344 453 494 514 282 141 57 30 29 59 318 113 40 70 146 107 75 132 182 213 0 0 6
150 167 9 0 118 359 638 476 196 157 154 148 174 113 239 240 240 78 62 127 80 45 112 217 200 263 410 426 258 393 132 144 74 57 19 23 146 40 9 127 102 100 50 172 265 211 1 0 0
222 0 3 0 240 243 610 361 333 359 68 50 56 49 41 165 300 153 81 81 44 68 177 164 410 190 138 203 189 182 116 57 10 42 22 4 83 66 14 61 41 26 208 264 203 0 0 0 73
0 0 1 9 281 452 654 555 311 402 85 0 8 1 51 182 331 178 153 76 39 66 162 339 349 296 144 80 90 83 47 0 0 2 59 10 334 145 57 14 4 50 264 93 391 14 21 94 70
0 0 3 5 325 507 651 660 428 393 71 16 0 0 23 223 222 187 160 100 52 85 169 175 126 146 58 16 15 4 5 4 0 3 40 115 67 44 38 24 8 48 119 132 260 260 189 143 106
0 0 0 0 0 434 700 669 500 617 232 175 173 35 65 9 12 72 169 143 89 126 79 79 74 16 0 0 0 0 12 3 0 2 53 63 8 64 58 55 2 14 60 109 283 317 96 0 0
0 0 0 0 337 451 483 691 481 621 529 467 238 29 3 11 0 57 231 161 138 123 61 18 28 0 0 0 0 0 3 0 2 0 94 5 0 84 3 2 0 32 87 163 51 369 22 0 0
0 0 0 0 0 485 65 31 385 536 402 468 296 31 2 6 0 8 88 143 331 128 43 0 0 0 0 0 0 0 5 0 0 11 20 58 22 31 54 0 0 6 33 63 29 195 130 0 0
0 0 0 0 0 8 19 77 0 341 377 325 210 111 8 15 0 36 64 212 391 278 102 8 6 0 0 0 3 0 4 0 0 9 75 28 44 233 69 1 0 3 0 21 115 485 16 0 0
0 0 0 0 0 0 0 0 0 6 308 425 148 0 54 1 0 78 109 281 437 417 298 40 14 0 0 0 0 0 0 0 0 0 84 42 108 184 35 0 0 31 31 153 127 920 24 0 0
0 0 0 0 0 0 0 0 0 0 143 370 431 40 0 43 0 39 113 130 403 499 461 127 18 0 0 0 0 0 0 0 0 0 2 54 245 400 83 0 0 2 116 261 659 990 91 153 84
0 0 0 0 0 0 0 0 0 0 0 64 180 67 69 141 75 44 174 117 359 480 530 237 55 4 0 0 0 0 0 0 0 0 0 5 270 460 460 99 0 0 101 595 751 697 564 693 508
0 0 0 0 0 0 0 0 0 0 0 0 45 60 210 129 17 43 146 197 348 560 472 303 42 18 0 0 0 0 0 0 0 11 23 27 150 478 445 215 183 6 116 600 596 1028 771 833 887
0 0 0 0 0 0 0 0 0 0 8 35 1 44 52 56 17 73 82 170 309 666 549 328 60 32 73 20 27 21 47 3 60 44 0 62 88 382 405 200 245 559 602 584 378 689 498 710 532
0 0 0 0 0 0 0 0 0 4 63 11 1 69 148 46 58 154 106 272 346 604 654 396 137 77 106 422 99 79 156 290 368 35 0 20 279 414 970 962 477 680 660 571 645 770 657 407 531
0 0 0 0 0 0 0 0 0 0 39 67 59 1 133 38 51 42 221 174 466 465 714 560 277 152 137 588 502 185 131 166 232 393 4 9 174 243 286 559 630 727 715 758 467 388 422 501 558
0 0 0 0 0 0 0 0 0 0 0 87 97 28 36 0 25 59 278 173 513 464 630 677 654 510 414 445 599 462 357 329 416 384 575 399 89 1 240 148 215 178 89 354 705 678 931 527 525
CIN
-320 -276 -282 -206 -234 -129 -56 -15 -25 -109 -99 -114 -42 -44 -93 -124 -76 -53 -250 -204 -150 -96 -21 0 0 0 0 0 -3 -1 0 0 0 0 0 0 0 -2 0 0 -2 -6 -7 -11 -4 -6 -13 -13 -12
0 -43 -222 -198 -124 0 0 -107 -161 -104 -120 -54 -62 -117 -126 -120 -138 -153 -151 -116 -125 -84 -26 -3 0 0 -1 0 0 0 0 0 0 0 0 0 -2 -2 -5 -4 -6 -6 -3 -4 -4 -2 -12 -5 -6
0 -268 -243 -143 -128 -75 -93 -93 -103 -66 -90 -83 -70 -102 -140 -148 -131 -178 -176 -106 -73 -49 -42 -9 0 0 0 0 0 0 0 0 0 0 -1 -6 -7 -2 -6 -6 -7 -5 -4 -2 -6 -11 -14 -11 -11
-296 -223 -254 -131 -123 -94 -80 -84 -180 -84 -35 -29 -60 -94 -136 -137 -160 -173 -136 -71 -50 -56 -41 0 0 0 0 0 0 0 0 0 0 0 0 -3 -10 -10 -5 -6 -4 -5 -9 -7 -9 -14 -8 -6 -3
-229 -241 -93 -117 -32 -132 -180 -102 -105 -75 -32 -28 -74 -109 -147 -173 -188 -168 -133 -62 -71 -71 -46 -1 0 0 0 0 0 0 0 0 0 0 -2 -11 -8 -10 -8 -5 -2 -2 0 0 0 -5 -5 0 0
-106 -120 -123 -81 -61 -89 -92 -80 -102 -79 -56 -88 -104 -143 -160 -246 -191 -166 -144 -98 -78 -79 -19 -1 0 0 0 0 0 0 0 0 -1 -3 -6 -10 -3 -3 -9 -7 0 0 0 0 0 -4 -4 -11 -5
-100 -130 -42 -91 -89 -43 -56 -61 -46 -47 -72 -66 -116 -155 -81 -207 -169 -167 -119 -80 -69 -34 -32 -12 -7 -1 0 0 0 0 0 -1 -3 -4 -9 -8 -5 -3 -3 0 0 -4 -2 -4 -12 -17 -17 -13 -6
-102 -33 -80 -97 -87 -51 -37 -32 -49 -19 -49 -80 -131 -144 -186 -42 0 -134 -70 -66 -39 -20 -29 -29 -27 -5 -6 -2 0 0 -1 0 0 -1 0 -5 -6 -5 -2 -3 0 0 0 0 -6 -8 -5 -8 -7
-204 -160 -76 -67 -117 -66 -34 -23 -45 -62 -51 -86 -88 -164 -197 -210 -150 -88 -42 -36 -51 -48 -59 -52 -60 -67 -26 -16 -5 -1 0 0 0 -1 -3 -43 -105 -68 -71 -10 -1 -1 0 -1 -2 -6 -12 -11 -7
-112 0 0 -115 -108 -56 -35 -36 -54 -65 -75 -95 -187 -216 -217 -149 -111 -82 -65 -62 -52 -60 -50 -57 -67 -84 -54 -12 -18 -22 -13 -32 -28 -64 -76 -61 -143 -22 -42 -64 -3 -2 -1 -2 -6 -1 -1 -3 -64
-115 0 -151 -94 -138 -46 -54 -56 -59 -114 -78 -115 -146 -158 -179 -152 -91 -79 -91 -98 -109 -110 -81 -76 -66 -72 -66 -14 -40 -65 -89 -88 -87 -98 -75 -73 -76 -69 -95 -101 -103 -84 -42 -79 -58 -68 -46 -53 -57
-93 -140 -142 -111 -114 -85 -59 -76 -64 -106 -179 -105 -101 -158 -166 -141 -131 -110 -130 -144 -147 -133 -118 -96 -76 -76 -70 -47 -48 -63 -102 -109 -104 -141 -117 -78 -85 -99 -119 -115 -115 -144 -317 -117 -123 -153 -73 -55 -90
-95 -98 -148 -214 -176 -105 -115 -90 -102 -129 -148 -95 -104 -129 -144 -133 -126 -134 -139 -132 -158 -143 -125 -98 -118 -96 -90 -69 -67 -73 -107 -112 -113 -112 -143 -116 -128 -100 -152 0 -122 -248 -254 -242 -182 -184 -190 -108 -65
-108 -115 -154 -170 -205 -113 -136 -126 -153 -168 -189 -122 -116 -120 -122 -138 -137 -134 -152 -154 -169 -165 -131 -138 -120 -111 -126 -93 -95 -93 -130 -133 -137 -139 -110 -130 -92 -129 -191 -170 -140 -222 -204 -234 -179 -166 0 0 -45
-188 -123 -207 -14 -237 -172 -171 -123 -155 -167 -267 -227 -163 -159 -95 -74 -89 -159 -169 -162 -154 -182 -149 -115 -128 -146 -111 -105 -121 -93 -146 -114 -123 -129 -144 -162 -121 -183 -219 -145 -202 -248 -264 -203 -165 -170 -17 0 0
-101 0 -75 0 -244 -219 -144 -95 -188 -243 -280 -264 -274 -209 -167 -117 -103 -132 -173 -206 -204 -180 -135 -162 -59 -138 -152 -132 -112 -108 -141 -126 -178 -151 -182 -176 -151 -183 -221 -180 -221 -322 -205 -185 -197 0 0 0 -134
0 0 -32 -183 -227 -144 -150 -129 -194 -269 -286 -24 -366 -111 -208 -126 -116 -163 -163 -227 -255 -212 -190 -110 -93 -101 -124 -157 -129 -111 -142 0 0 -172 -147 -248 -117 -155 -192 -217 -341 -311 -205 -245 -156 -154 -265 -167 -193
0 0 -19 -53 -127 -158 -169 -161 -186 -260 -319 -271 0 0 -246 -146 -138 -155 -182 -221 -275 -289 -211 -166 -146 -127 -134 -188 -163 -105 -154 -85 0 -176 -197 -199 -235 -233 -233 -306 -390 -288 -232 -219 -187 -167 -179 -167 -202
0 0 0 0 -1 -164 -165 -150 -169 -197 -313 -306 -236 -280 -269 -315 -285 -179 -166 -221 -293 -271 -238 -243 -176 -81 0 0 0 0 -109 -115 0 -229 -170 -213 -180 -261 -239 -295 -381 -350 -242 -225 -196 -183 -226 0 -1
0 0 0 0 -125 -129 -154 -137 -189 -255 -277 -285 -268 -301 -320 -289 -32 -231 -200 -218 -250 -280 -278 -252 -221 0 0 0 0 0 -81 -153 -45 0 -148 -272 0 -245 -371 -377 0 -335 -268 -257 -296 -195 -276 0 0
0 0 0 0 0 -144 -77 -77 -216 -279 -387 -344 -333 -338 -358 -285 0 -115 -259 -253 -210 -277 -287 0 0 0 0 0 0 0 -86 0 0 -174 -181 -205 -294 -300 -245 0 0 -383 -328 -239 -348 -285 -215 0 0
0 0 0 0 0 -16 -8 -21 0 -345 -381 -401 -351 -355 -355 -330 0 -357 -296 -271 -206 -199 -254 -242 -192 0 0 -4 -202 0 -92 0 0 -133 -163 -216 -270 -190 -250 -229 0 -385 -76 -326 -298 -250 -359 0 0
0 0 0 0 0 0 0 0 0 -148 -329 -367 -447 0 -413 -52 0 -357 -354 -320 -248 -177 -219 -275 -312 0 0 0 0 0 0 0 0 0 -160 -240 -225 -212 -305 -9 -24 -294 -310 -230 -233 -160 -403 0 0
0 0 0 0 0 0 0 0 0 0 -312 -296 -365 -498 0 -384 0 -339 -297 -275 -232 -182 -167 -240 -299 0 0 0 0 0 0 0 0 0 -147 -211 -188 -189 -289 0 0 -182 -276 -217 -160 -151 -291 -251 -309
0 0 0 0 0 0 0 0 0 0 0 -364 -375 -532 -519 -431 -406 -423 -333 -345 -252 -200 -192 -243 -301 -87 0 0 0 0 0 0 0 0 0 -226 -159 -172 -185 -292 0 0 -265 -164 -134 -135 -146 -149 -172
0 0 0 0 0 0 0 0 0 0 0 0 -436 -502 -448 -422 -410 -393 -387 -364 -320 -238 -196 -249 -333 -318 0 0 0 0 0 0 0 -166 -197 -165 -186 -149 -158 -199 -228 -51 -257 -147 -129 -94 -103 -122 -130
0 0 0 0 0 0 0 0 0 -11 -252 -310 -574 -666 -583 -478 -535 -429 -466 -374 -362 -275 -259 -276 -336 -318 -259 -254 -253 -245 -207 -30 -182 -176 0 -212 -181 -132 -129 -198 -167 -166 -148 -131 -145 -111 -101 -94 -133
0 0 0 0 0 0 0 0 0 -39 -85 -120 -168 -575 -621 -543 -527 -429 -461 -438 -379 -313 -284 -277 -334 -335 -269 -188 -229 -204 -195 -165 -142 -202 0 -135 -148 -131 -119 -132 -170 -140 -133 -129 -127 -100 -108 -111 -107
0 0 0 0 0 0 0 0 0 0 -134 -141 -222 -175 -511 -191 -527 -548 -365 -444 -373 -326 -250 -283 -301 -295 -293 -172 -170 -180 -191 -186 -176 -151 -10 -90 -176 -169 -170 -170 -195 -164 -116 -125 -139 -131 -112 -98 -94
0 0 0 0 0 0 0 0 0 0 0 -313 -233 -445 -572 0 -637 -511 -386 -418 -365 -349 -278 -281 -257 -257 -248 -227 -173 -174 -174 -167 -165 -171 -145 -162 -186 -13 -168 -203 -192 -185 -182 -142 -116 -112 -83 -98 -85
Wind_Speed
2 3 2 2 6 5 2 3 3 7 8 6 1 3 5 4 1 3 3 7 11 11 8 9 10 11 10 9 9 10 11 12 12 12 12 12 12 12 14 14 12 11 10 9 9 8 6 3 2
2 2 1 2 6 3 3 2 10 8 6 5 4 4 4 3 3 7 8 8 13 10 7 6 9 11 13 11 10 11 11 11 12 11 11 10 9 9 10 11 10 10 9 9 8 7 6 4 3
2 0 3 4 3 4 4 6 9 7 9 5 3 4 3 3 7 5 7 11 11 9 6 8 13 12 13 12 11 10 10 10 11 11 9 8 7 9 8 9 10 9 9 8 6 6 4 3 2
3 3 4 5 3 1 3 8 11 7 6 3 8 5 4 5 9 7 14 12 10 8 7 11 14 13 12 11 10 10 10 10 10 9 8 7 5 9 8 9 9 9 8 6 5 4 4 2 3
2 2 4 4 3 3 4 4 4 8 3 8 2 3 3 3 10 17 15 12 11 7 6 9 14 13 13 11 10 10 10 9 8 7 8 5 5 6 7 8 8 8 9 8 7 6 4 3 3
4 3 5 2 2 4 4 6 4 5 3 8 6 5 1 6 17 13 13 11 10 10 7 8 14 14 13 12 10 9 9 8 8 7 6 6 7 4 5 6 7 8 9 7 6 6 3 3 3
1 3 1 4 2 2 4 6 5 3 9 5 8 4 2 7 10 13 11 9 9 8 7 5 6 10 13 11 10 9 9 7 7 6 7 7 9 7 6 6 6 7 8 7 6 5 3 3 3
3 4 2 2 1 4 2 3 2 3 1 10 10 6 6 7 10 10 9 7 8 8 6 6 5 5 5 5 11 9 9 7 7 9 9 7 7 6 3 4 4 4 6 6 7 6 5 4 4
4 2 1 2 0 4 1 1 4 4 9 3 2 6 8 13 13 10 8 4 3 5 6 6 5 5 5 4 5 9 9 7 8 8 9 6 4 3 3 2 3 5 7 7 7 7 7 5 5
3 2 4 3 3 4 2 3 5 4 2 4 6 9 15 15 14 14 12 10 7 8 6 6 6 6 5 3 2 5 3 2 4 5 4 3 4 2 1 1 6 5 6 7 6 5 6 5 2
5 3 5 2 4 3 5 1 1 10 2 4 12 14 14 16 12 13 13 14 15 10 7 8 7 6 7 5 3 2 2 3 3 5 4 3 3 1 1 1 1 1 6 2 3 3 2 2 1
4 4 4 2 1 3 6 4 2 5 5 6 11 14 13 13 12 12 11 9 9 8 9 9 8 6 6 4 4 4 3 3 3 4 5 3 2 2 2 1 1 2 2 2 3 1 3 3 4
3 3 3 2 2 2 7 5 3 5 5 10 12 13 12 10 8 5 6 7 8 8 8 9 8 8 6 7 5 4 4 4 4 4 4 3 3 2 3 0 1 2 2 2 1 0 1 1 4
1 2 2 3 3 3 4 2 1 3 6 9 11 12 12 12 11 7 7 8 8 7 8 7 8 8 7 6 8 6 4 5 4 4 3 4 2 3 2 3 2 2 2 2 2 1 2 3 3
5 0 4 6 3 4 6 4 8 5 10 9 13 9 10 11 11 12 13 10 10 6 7 8 7 6 7 6 5 5 4 4 4 4 5 5 3 3 4 3 1 1 2 2 2 3 3 1 1
1 3 3 2 4 4 7 9 10 8 12 12 12 12 12 14 16 12 10 8 8 7 8 6 6 7 6 6 5 4 4 4 4 4 4 5 4 5 4 2 1 1 1 3 3 2 2 2 3
4 3 3 8 11 4 6 8 7 8 11 11 11 11 8 11 13 13 13 9 10 9 8 7 6 6 6 6 5 5 5 4 4 4 4 5 4 5 4 3 2 2 3 3 3 1 2 1 1
3 5 4 7 5 6 8 18 3 6 9 11 8 9 10 15 16 14 13 10 10 8 8 7 5 6 5 4 4 3 3 3 4 3 4 5 4 5 4 2 3 2 4 3 2 2 2 0 0
3 4 8 17 10 6 16 16 8 8 6 8 8 8 7 11 9 12 11 10 10 9 9 8 8 6 5 4 4 3 3 2 2 3 6 5 5 5 5 3 2 1 2 3 3 3 4 1 1
5 7 17 13 5 10 3 17 6 10 14 16 10 7 8 6 9 9 12 10 12 11 10 8 8 7 5 4 2 3 3 2 2 2 4 5 6 4 4 5 4 3 3 4 3 2 2 2 1
10 6 13 8 4 3 3 7 6 7 1 5 5 6 6 11 9 12 12 13 13 12 12 11 9 8 6 6 4 3 3 3 2 2 3 5 5 5 4 4 3 3 2 3 2 3 5 3 2
8 14 14 6 3 4 5 7 7 5 4 6 8 9 11 10 7 11 15 14 15 13 10 9 9 8 6 7 4 6 4 4 3 4 3 5 6 5 5 4 4 4 2 2 2 4 4 4 4
12 5 5 4 3 2 2 1 9 3 6 14 12 11 11 12 12 16 19 19 16 14 13 9 9 8 7 7 6 5 3 2 2 1 3 4 4 4 5 6 5 5 3 2 4 4 5 3 3
7 2 5 5 3 2 3 4 10 4 8 5 11 14 14 13 12 16 15 14 13 13 15 12 11 10 8 8 7 7 8 5 3 3 3 3 2 3 4 4 4 2 3 2 2 3 6 5 4
5 6 4 6 5 9 1 2 12 13 7 12 8 14 17 18 17 16 17 15 15 17 14 12 12 10 10 9 8 8 7 7 7 6 5 4 3 3 5 5 5 4 5 4 2 4 4 4 3
3 8 7 7 4 6 4 4 9 4 6 7 8 9 9 9 13 15 19 19 18 19 18 15 13 11 11 11 9 7 7 5 5 5 4 4 4 4 5 6 5 6 6 5 5 3 2 2 2
4 5 4 7 2 4 4 9 10 6 1 6 8 7 12 15 17 18 17 19 18 19 19 18 15 11 12 13 8 8 8 8 6 6 4 4 5 4 6 7 7 7 6 6 5 4 4 3 2
8 6 3 4 3 4 5 6 7 8 8 8 10 13 11 10 13 14 18 19 18 18 17 16 16 17 14 12 10 8 9 7 6 6 6 5 5 4 4 6 7 7 7 6 5 4 3 4 3
1 3 4 6 5 6 2 8 9 9 10 10 10 11 14 11 11 13 16 15 16 14 14 16 15 14 13 12 11 9 8 8 6 5 6 6 5 5 6 5 6 7 6 6 5 5 4 5 4
1 4 5 6 7 4 6 9 4 9 11 7 9 10 8 8 9 12 14 14 17 19 17 18 15 14 14 13 12 10 8 6 6 6 6 5 6 6 6 5 5 5 6 5 6 6 6 6 6
Wind_Direction
261 246 246 39 65 57 74 200 248 294 346 335 81 117 125 38 89 203 144 147 130 143 147 164 167 158 156 140 128 122 124 125 125 131 129 134 133 144 138 141 146 148 154 170 183 168 166 185 122
297 209 20 75 75 62 285 338 250 247 253 189 75 85 49 81 83 114 113 157 143 142 141 148 164 152 156 147 145 137 136 137 132 126 129 131 133 132 143 152 151 155 164 179 175 186 202 218 179
260 12 60 84 119 147 167 227 241 279 257 283 104 65 98 124 119 133 134 147 136 138 131 151 156 159 156 152 155 145 140 139 137 135 143 132 126 116 165 154 156 156 174 182 184 189 187 190 162
5 11 25 69 26 8 201 212 222 274 246 240 108 79 83 169 149 139 137 142 135 134 140 160 162 162 161 161 159 157 152 148 143 142 147 125 128 168 170 158 150 157 156 162 176 182 197 162 148
44 64 52 85 329 247 235 256 197 287 84 133 124 123 60 64 119 138 141 146 142 139 150 156 164 166 167 163 164 154 146 146 141 149 147 116 139 149 149 136 149 145 150 162 170 193 185 172 142
1 79 57 44 188 277 268 231 202 247 91 132 119 87 83 129 136 149 150 152 151 152 153 167 167 172 167 165 167 161 153 151 155 158 134 135 126 120 141 143 148 146 153 158 180 208 189 187 215
30 92 235 165 240 226 244 161 188 238 159 147 132 97 83 151 148 151 151 147 147 154 149 166 165 171 172 166 173 166 161 169 158 140 150 158 138 157 164 158 157 164 163 168 193 209 229 257 260
159 85 159 299 169 268 235 167 101 54 121 108 136 169 178 187 157 140 138 140 151 158 160 164 164 172 156 169 169 170 159 167 157 149 156 133 126 142 151 185 187 172 173 176 201 214 226 251 255
124 66 254 239 224 258 249 203 41 18 125 76 242 145 154 143 131 128 127 141 138 150 171 159 166 161 149 149 181 163 163 169 156 142 138 102 82 64 29 257 230 196 177 173 205 217 222 244 256
146 118 211 234 222 240 176 163 142 80 48 68 79 85 116 135 148 157 164 174 178 178 185 170 164 156 154 153 167 139 147 119 110 103 112 116 131 206 216 330 230 204 168 168 191 218 218 224 269
207 211 186 215 238 182 151 122 34 124 238 230 159 148 145 149 161 170 178 183 182 185 176 180 177 170 157 164 150 136 145 127 126 120 143 160 130 214 89 216 68 21 66 53 56 7 342 147 187
135 217 201 181 52 140 152 158 126 185 208 183 168 158 150 167 175 180 176 170 173 180 187 180 180 173 173 160 147 154 156 145 135 156 160 161 144 173 155 208 183 127 80 87 84 330 279 224 169
123 210 350 349 328 140 136 205 217 220 196 164 156 163 168 176 186 198 180 175 170 178 183 192 172 183 174 171 150 165 177 146 145 158 177 179 192 167 121 306 162 163 98 111 18 25 81 90 168
186 68 340 276 256 136 139 253 351 185 154 157 168 183 180 183 185 188 199 193 182 176 184 174 181 181 166 173 167 171 164 145 157 165 178 203 173 144 144 142 168 186 193 170 218 194 92 138 174
115 245 277 222 237 195 127 278 238 170 162 174 181 187 194 197 181 193 201 197 185 180 157 174 174 157 171 161 155 160 169 153 161 170 176 207 182 167 165 145 111 261 263 157 179 134 114 133 257
268 55 353 234 198 217 146 269 240 194 160 191 197 203 204 207 200 199 194 183 165 153 172 164 175 163 158 162 151 165 163 161 157 178 182 208 201 172 179 174 233 347 55 80 110 102 123 209 201
338 257 255 313 200 155 175 261 267 173 183 206 199 210 201 191 198 192 193 179 167 164 153 157 145 156 158 156 155 159 169 165 174 177 191 190 189 164 173 210 113 85 89 100 104 125 105 146 233
254 310 273 244 233 202 210 253 277 212 167 211 210 213 228 192 195 189 183 167 155 155 151 145 148 150 153 136 126 119 156 161 190 187 200 182 181 175 182 200 143 178 108 76 120 145 108 76 280
265 255 256 283 268 160 211 237 235 216 196 213 224 215 200 178 180 177 177 161 147 151 145 154 149 160 151 146 148 145 175 166 179 185 190 193 189 198 181 201 148 157 149 159 136 131 134 95 11
241 274 281 277 210 176 141 248 237 206 215 205 203 208 196 140 143 161 165 169 167 168 159 157 162 162 168 154 140 137 152 179 144 170 177 198 194 196 174 180 179 187 167 120 91 119 113 76 77
282 220 271 236 337 202 108 296 252 240 43 174 206 199 196 189 162 165 176 171 175 173 173 168 168 169 169 160 119 86 67 44 96 171 198 217 209 200 202 180 162 221 242 128 111 140 112 133 27
264 276 256 256 113 221 140 272 278 282 266 212 209 206 202 199 169 169 175 182 177 181 171 163 165 170 172 160 153 152 172 164 195 180 202 212 207 213 196 212 195 222 198 140 148 140 143 121 157
237 283 259 265 167 47 247 52 269 3 264 231 207 212 205 195 181 181 186 186 176 173 167 168 169 175 169 177 169 154 178 189 131 183 193 218 212 218 199 198 201 217 197 175 144 161 156 163 151
266 297 36 43 70 28 271 131 287 225 221 251 189 196 201 196 191 190 187 177 175 164 171 171 176 185 167 181 174 173 179 188 165 191 209 218 229 208 231 212 205 292 285 249 198 187 170 182 140
86 60 332 340 359 236 36 111 240 261 247 238 174 195 197 195 187 175 178 179 174 177 172 171 176 186 176 186 180 183 188 188 196 196 191 182 212 212 233 213 211 225 244 244 209 172 210 194 159
215 155 161 226 212 255 310 256 266 323 281 191 179 192 166 169 186 186 183 180 176 175 175 175 179 184 183 181 196 185 187 193 199 196 205 188 203 207 205 219 207 216 226 228 210 180 212 203 191
277 227 210 107 23 50 257 292 317 331 144 175 146 158 167 182 176 182 180 183 180 178 179 177 176 185 189 185 187 191 189 197 202 205 194 198 202 219 218 205 211 210 202 216 186 192 203 197 202
162 170 72 14 164 243 281 280 242 302 262 238 161 198 195 189 185 182 176 182 182 180 177 176 176 184 189 185 187 195 198 198 200 173 205 206 212 232 220 216 217 201 200 200 192 201 211 209 223
163 242 47 119 129 173 191 265 214 228 236 235 232 211 201 188 170 182 187 176 174 169 177 179 176 181 184 189 188 186 195 206 198 192 199 202 208 216 218 208 200 190 198 198 198 219 213 217 235
124 87 135 122 263 172 160 267 267 254 261 226 235 224 212 221 162 178 185 160 168 176 180 182 178 180 185 186 191 189 186 191 192 197 199 197 216 222 219 205 204 207 214 213 208 215 210 212 225